ELARASAT MMS-1 (64539 NORAD) Tracking and Keplerian Element Data

This shows tracking and keplerian element data for the satellite.

Feedback or suggestion? Click here.




ElementValue
Catalog64539
NameELARASAT MMS-1
Epoch Orbit2763
Epoch Day354.05788867
Epoch Year2025
RAAN105.9987
Inclination97.4604
Eccentricity0.0004701
Argument of Perigee82.8948
Mean Anonmoly277.2822
Mean Motion15.20049491
Decay Rate6.694E-05
L11 64539U 25135M 25354.05788867 .00006694 00000+0 31338-3 0 9996
L22 64539 97.4604 105.9987 0004701 82.8948 277.2822 15.20049491 27632



Live tracking and technical data element details for ELARASAT MMS-1 (NORAD 64539). ELARASAT MMS-1 can be tracked NOW for your location showing map with azimuth and elevation plus other details from your city location.







IsCatalogInMostPopularTable: catalog: 64539, numindb: 8
Update: records affected: 1



GetName: 64539 ELARASAT MMS-1

Hit Count: updated at: Mon, 20 Apr 2026 10:36:22 GMT